Location: Peterborough
(44.3091°N, 78.3197°W)
Time: 00:40:50
(UTC-04:00)

Altair - Pass Details

Date: 04 August 2024
Orbit: 1501 x 1682 km, 47.2° (Epoch: 19 September)

Event Time Altitude Azimuth Distance (km) Brightness Sun altitude
Rises 23:18:50 0° 287° (WNW) 4,662 10.8 -22.9°
Reaches altitude 10° 23:23:39 10° 266° (W) 3,659 9.8 -23.4°
Maximum altitude 23:28:09 15° 236° (SW) 3,279 9.2 -23.8°
Enters shadow 23:32:03 11° 209° (SSW) 3,555 9.1 -24.1°
